Location: Cedar Brake
(32.2526°N, 97.8459°W)
Time: 20:16:24
(UTC+00:00)

ARGOS - Pass Details

Date: 22 April 2026
Orbit: 817 x 833 km, 98.5° (Epoch: 21 May)

Event Time Altitude Azimuth Distance (km) Brightness Sun altitude
Rises 09:57:28 0° 14° (NNE) 3,363 7.0 -23.4°
Reaches altitude 10° 09:59:50 10° 16° (NNE) 2,424 6.2 -22.9°
Maximum altitude 10:05:11 75° 102° (ESE) 850 3.2 -22.0°
Enters shadow 10:08:16 26° 184° (S) 1,556 4.3 -21.4°
